Home > Weather > Cincinnati > Past weeks

Flag for USA Weather for the Past 2 Weeks in Cincinnati, Ohio, USA

Now
60 °F

Overcast.


Feels Like: 60 °F
Forecast: 52 / 65 °F
Wind: 7 mph from South

Location: Cincinnati Municipal Airport Lunken Field

Current Time: Apr 30, 2016 at 7:07:27 PM

Latest Report: Apr 30, 2016 at 5:53 PM


Visibility: 10 mi

Pressure: 29.94 "Hg

Humidity: 93%

Dew Point: 58 °F

Location of CincinnatiLocation

Historic Weather in Cincinnati — Graph

°F

Cincinnati Temperature Yesterday

Maximum temperature yesterday: 68 °F (at 2:53 PM)
Minimum temperature yesterday: 56 °F (at 3:53 AM)
Average temperature yesterday: 61 °F

High & Low Weather Summary for the Past Weeks

 TemperatureHumidityPressure
High82 °F (Apr 18, 2:53 PM)100% (Apr 16, 1:53 AM)30.42 "Hg (Apr 16, 1:53 AM)
Low39 °F (Apr 24, 6:53 AM)20% (Apr 18, 4:53 PM)29.72 "Hg (Apr 26, 6:53 PM)
Average62 °F73%30.04 "Hg
* Reported Apr 15 4:53 PM — Apr 30 4:53 PM, Cincinnati, Weather by CustomWeather, © 2016

Note: Actual official high and low records may vary slightly from our data, if they occured in-between our weather recording intervals... More about our weather records

Advertising

Cincinnati Weather History for the Previous 24 Hours

Scroll right to see more
 ConditionsComfort  
Time TempWeatherWind HumidityBarometerVisibility
4:53 PM
Sat, Apr 30
60 °FOvercast.3 mph93%29.92 "Hg10 mi
3:53 PM58 °FLight rain. Fog.6 mph97%29.93 "Hg6 mi
2:53 PM56 °FLight rain. Fog.7 mph100%29.99 "Hg4 mi
1:53 PM56 °FLight rain. Fog.7 mph97%29.99 "Hg5 mi
12:53 PM55 °FLight rain. Fog.7 mph96%30.03 "Hg4 mi
11:53 AM55 °FLight rain. Fog.3 mph90%30.06 "Hg4 mi
10:53 AM55 °FOvercast.No wind83%30.06 "Hg10 mi
9:53 AM54 °FLight rain. Mostly cloudy.9 mph90%30.01 "Hg10 mi
8:53 AM54 °FOvercast.5 mph86%30.03 "Hg10 mi
7:53 AM53 °FOvercast.7 mph89%30.03 "Hg10 mi
6:53 AM53 °FLight rain. Overcast.6 mph86%30.04 "Hg10 mi
5:53 AM53 °FOvercast.8 mph83%30.03 "Hg10 mi
4:53 AM53 °FOvercast.No wind80%30.06 "Hg10 mi
3:53 AM53 °FOvercast.5 mph83%30.06 "Hg10 mi
2:53 AM54 °FOvercast.8 mph80%30.05 "Hg9 mi
1:53 AM55 °FOvercast.13 mph83%30.04 "Hg10 mi
12:53 AM57 °FOvercast.9 mph78%30.09 "Hg10 mi
11:53 PM
Fri, Apr 29
57 °FOvercast.8 mph78%30.10 "Hg10 mi
10:53 PM58 °FClear.6 mph78%30.10 "Hg10 mi
9:53 PM59 °FClear.8 mph75%30.08 "Hg10 mi
8:53 PM61 °FSunny.6 mph70%30.05 "Hg10 mi
7:53 PM64 °FPassing clouds.5 mph58%30.04 "Hg10 mi
Weather by CustomWeather, © 2016

See weather overviewHow to use our weather pages